This is the latest recevied weather packets stored in our database for station/object IZ1UQG-1. If no packets are shown the sender has not sent any weather packets the latest 10 day(s).
| Time | Temp. | Humidity | Pressure | Rain* | Wind** | Luminosity | Snow |
|---|---|---|---|---|---|---|---|
| 1778024934 | 13.89° C | 79% | 1011.7 hPa | 89.92 mm | - | - | - |
| 1778024634 | 13.89° C | 79% | 1011.8 hPa | 85.6 mm | - | - | - |
| 1778024334 | 13.89° C | 79% | 1011.7 hPa | 44.7 mm | - | - | - |
| 1778024034 | 13.89° C | 79% | 1011.7 hPa | 82.55 mm | - | - | - |
| 1778023734 | 13.89° C | 79% | 1011.6 hPa | 81.53 mm | - | - | - |
| 1778023434 | 13.89° C | 79% | 1011.7 hPa | 78.49 mm | - | - | - |
| 1778023134 | 13.89° C | 79% | 1011.9 hPa | 18.8 mm | - | - | - |
| 1778022834 | 13.89° C | 79% | 1012.1 hPa | 71.63 mm | - | - | - |
| 1778022534 | 13.89° C | 79% | 1012 hPa | 52.58 mm | - | - | - |
| 1778022234 | 13.89° C | 79% | 1012 hPa | 52.58 mm | - | - | - |
| 1778021934 | 13.89° C | 79% | 1012.1 hPa | 44.7 mm | - | - | - |
| 1778021634 | 13.89° C | 79% | 1012 hPa | 25.65 mm | - | - | - |
| 1778021334 | 13.89° C | 79% | 1012.1 hPa | 30.73 mm | - | - | - |
| 1778021034 | 13.89° C | 79% | 1012.1 hPa | 33.27 mm | - | - | - |
| 1778020734 | 13.89° C | 79% | 1012.1 hPa | 14.73 mm | - | - | - |
| 1778020434 | 13.89° C | 79% | 1012.1 hPa | 24.13 mm | - | - | - |
| 1778020135 | 13.89° C | 79% | 1012 hPa | 14.22 mm | - | - | - |
| 1778019834 | 13.89° C | 79% | 1012.1 hPa | 23.62 mm | - | - | - |
| 1778019534 | 13.89° C | 79% | 1012.3 hPa | 249.43 mm | - | - | - |
| 1778019234 | 13.89° C | 79% | 1012.4 hPa | 235.97 mm | - | - | - |
| 1778018934 | 13.89° C | 79% | 1012.3 hPa | 239.78 mm | - | - | - |
| 1778018634 | 13.89° C | 79% | 1012.5 hPa | 245.87 mm | - | - | - |
| 1778018335 | 13.89° C | 79% | 1012.5 hPa | 231.9 mm | - | - | - |
| 1778018035 | 13.89° C | 79% | 1012.5 hPa | 14.22 mm | - | - | - |
| 1778017734 | 13.89° C | 79% | 1012.6 hPa | 237.24 mm | - | - | - |
* Rain latest hour (hover to see other rain measurements)
** Current wind speed in m/s (hover to see current wind gust speed)